www.pogodaiklimat.ru

Погода и климат >> Архив погоды >> Саудовская Аравия >> Арафат


ПОГОДА в Арафате

  • Прогноз погоды в Арафате
  • Монитор погоды в Арафате

АРХИВ ПОГОДЫ в Арафате

Время (UTC), дата Ветер
(напр.,м/с)
 
Видим.   Явления Облачность Т
(С)
Тd
(С)
f
(%)
Тe
(С)
Тes
(С)
Комфортность P
(гПа)
Po
(гПа)
Тmin
(С)
Tmax
(С)
R
(мм)
R24
(мм)
S
(см)
03 10.06 штиль 0 10 км 4/4 1200 м
[Sc diur, vesp]
+32.3 +17.0 40 +36 +36 очень
душно
1004.3 971.1
06 10.06 С 2 10 км 4/4 1200 м
[Sc diur, vesp]
+36.3 +17.0 32 +39 +46 очень
душно
1004.8 971.7 +32.3
09 10.06 Ю 4 10 км 6/5 1200 м
[Sc Ac trans]
+39.3 +15.0 24 +40 +47 очень
душно
1004.7 971.6
12 10.06 З 6 10 км 4/3 1200 м
[Sc diur, vesp Ac trans]
+42.6 +13.0 18 +42 +46 опасность
перегрева
1002.9 970.0
15 10.06 СЗ 5 10 км 4/0
[Ac trans]
+40.2 +13.0 20 +40 +40 очень
жарко
1003.2 970.1
18 10.06 10 км н/о +36.4 +14.0 26 +37 +37 очень
жарко
1004.9 971.7 +44.0
21 10.06 СЗ 2 10 км 5/4 1200 м
[Sc diur, vesp]
+34.8 +16.0 33 +37 +37 очень
душно
1005.3 972.2
00 11.06 Ю 2 10 км 5/4 1200 м
[Sc diur, vesp]
+33.6 +16.0 35 +36 +36 очень
душно
1004.3 971.3
03 11.06 штиль 0 10 км 5/5 1200 м
[Sc diur, vesp]
+32.6 +16.0 37 +35 +35 душно 1005.4 972.2
06 11.06 10 км н/о +35.0 +15.0 30 +36 +37 очень
жарко
1006.3 973.0 +32.2
09 11.06 СЗ 3 10 км 8/4 1200 м
[Sc diur, vesp Ac trans Ci fib]
+42.0 +13.0 18 +42 +49 опасность
перегрева
1005.1 972.1
12 11.06 СЗ 4 10 км 3/3 1200 м
[Sc diur, vesp]
+43.0 +14.0 18 +43 +50 опасность
перегрева
1003.1 970.2
15 11.06 З 2 10 км 3/0
[Ac trans]
+40.2 +16.0 24 +42 +43 опасность
перегрева
1003.7 970.6
18 11.06 СЗ 2 10 км 3/0
[Ac trans]
+36.6 +13.0 24 +37 +37 очень
жарко
1005.6 972.4 +44.2
21 11.06 штиль 0 10 км 6/6 900 м
[Cb calv]
+34.2 +13.0 28 +35 +35 очень
жарко
1005.4 972.4
00 12.06 штиль 0 10 км 4/3 1200 м
[Sc diur, vesp Ac trans]
+32.0 +13.0 31 +33 +33 жарко 1004.0 971.0
03 12.06 СВ 2 10 км 4/0
[Ac trans]
+32.2 +12.0 29 +32 +33 жарко 1004.4 971.2
06 12.06 С 2 10 км 1/0
[Ac trans]
+37.3 +13.0 23 +37 +48 очень
жарко
1005.0 971.9 +31.0
09 12.06 СЗ 4 10 км ясно +43.3 +12.0 16 +43 +57 опасность
перегрева
1002.3 969.5
12 12.06 СЗ 7 4000 м пыльный позёмок 3/0
[Ci fib]
+43.4 +13.0 17 +43 +47 опасность
перегрева
1000.9 968.0
15 12.06 СЗ 4 2700 м пыль {туман} 3/0
[Ac trans]
+40.0 +12.0 19 +39 +40 очень
жарко
1002.9 969.8
18 12.06 СЗ 2 5000 м пыль {туман} 1/1 1200 м
[Sc diur, vesp]
+36.6 +11.0 21 +36 +36 очень
жарко
1004.6 971.5 +44.4
21 12.06 штиль 0 8000 м пыль ясно +34.2 +12.0 26 +34 +34 очень
жарко
1004.7 971.8
00 13.06 СВ 2 8000 м пыль ясно +31.5 +12.0 30 +32 +32 жарко 1003.4 970.4
03 13.06 штиль 0 7000 м пыль 3/3 1200 м
[Sc diur, vesp]
+29.7 +12.0 34 +31 +31 жарко 1004.2 970.9
06 13.06 С 2 10 км ясно +35.0 +13.0 27 +35 +47 очень
жарко
1004.5 971.3 +28.0
09 13.06 З 4 10 км ясно +40.0 +13.0 20 +40 +56 опасность
солнечного
удара
1003.6 970.6
12 13.06 С 4 10 км ясно +41.8 +15.0 21 +43 +52 опасность
перегрева
1003.0 969.9
15 13.06 СЗ 4 4000 м пыль ясно +38.6 +10.0 18 +37 +38 очень
жарко
1003.9 970.5
18 13.06 СЗ 2 8000 м пыль ясно +35.4 +10.0 21 +34 +34 очень
жарко
1005.5 972.2 +43.0
21 13.06 штиль 0 10 км {туман} 5/3 1200 м
[Sc diur, vesp Ac trans]
+32.6 +16.0 37 +35 +35 душно 1004.9 971.7
00 14.06 штиль 0 10 км 6/4 1200 м
[Sc diur, vesp Ac trans]
+32.8 +13.0 30 +33 +33 жарко 1003.5 970.3
03 14.06 штиль 0 10 км 8/5 1200 м
[Sc Ac trans]
+30.8 +13.0 34 +32 +32 жарко 1004.2 971.0
06 14.06 С 3 10 км 4/3 1200 м
[Sc diur, vesp Ci fib]
+35.0 +8.0 19 +33 +40 жарко 1005.2 971.9 +30.0
09 14.06 СЗ 4 10 км 4/0
[Ac trans]
+39.6 +8.0 15 +37 +50 очень
жарко
1005.4 972.2
12 14.06 СЗ 2 10 км 3/0
[Ac trans]
+41.2 +8.0 14 +39 +51 опасность
солнечного
удара
1003.8 970.7
15 14.06 С 2 10 км 1/0
[Ac trans]
+39.5 +14.0 22 +40 +41 очень
душно
1003.5 970.3
18 14.06 С 1 10 км 3/0
[Ac trans]
+35.2 +12.0 25 +35 +35 очень
жарко
1005.6 972.3 +42.0
21 14.06 СЗ 2 10 км 3/0
[Ac trans]
+33.0 +12.0 28 +33 +33 жарко 1004.9 971.7
00 15.06 штиль 0 10 км ясно +32.4 +12.0 29 +33 +33 жарко 1003.3 970.2
03 15.06 штиль 0 10 км 3/3 1200 м
[Sc diur, vesp]
+32.0 +12.0 29 +32 +32 жарко 1003.5 970.3
06 15.06 СВ 2 10 км 5/3 1200 м
[Sc diur, vesp Ac trans]
+35.0 +10.0 22 +34 +41 очень
жарко
1005.1 971.8 +30.4
12 15.06 З 2 10 км ясно +41.4 +13.0 19 +41 +55 опасность
перегрева
1003.2 970.2
15 15.06 З 4 10 км 1/0
[Ci sp]
+39.4 +13.0 21 +39 +40 очень
жарко
1004.1 970.9
18 15.06 штиль 0 10 км 3/0
[Ac trans]
+35.6 +13.0 26 +36 +36 очень
жарко
1005.3 972.0 +42.4
21 15.06 С 1 10 км 5/0
[Ac trans]
+34.6 +15.0 31 +36 +36 душно 1005.4 972.3
00 16.06 штиль 0 10 км 5/0
[Ac trans]
+33.3 +15.0 33 +35 +35 душно 1003.9 970.9
03 16.06 штиль 0 10 км 8/0
[Ac trans]
+31.5 +13.0 32 +32 +32 жарко 1004.6 971.4
06 16.06 СЗ 2 10 км 5/0
[Ac trans]
+35.8 +11.0 22 +35 +43 очень
жарко
1005.4 972.1 +31.4
09 16.06 СЗ 2 10 км ясно +41.3 +12.0 18 +41 +62 опасность
перегрева
1004.4 971.4
12 16.06 СЗ 7 10 км 3/0
[Ac trans]
+42.8 +12.0 16 +42 +45 опасность
перегрева
1003.5 970.6
15 16.06 СЗ 5 10 км 3/0
[Ci sp]
+40.0 +12.0 19 +39 +40 очень
жарко
1004.1 970.9
18 16.06 штиль 0 10 км 3/0
[Ac trans]
+36.8 +16.0 29 +39 +39 очень
душно
1005.8 972.6 +44.0
21 16.06 штиль 0 10 км ясно +34.2 +16.0 34 +37 +37 очень
душно
1005.7 972.7
00 17.06 СВ 1 10 км 3/0
[Ac trans]
+32.6 +16.0 37 +35 +35 душно 1004.2 971.2

 

Местоположение метеостанции Арафат (Саудовская Аравия): широта 21.33 долгота 39.97 высота над уровнем моря 308 м.

В архиве по умолчанию представлена погода в Арафате за последнюю неделю. Архивные данные за месяц целиком и за предыдущие месяцы, начиная с января 2011 года, Вы можете получить, выбрав интересующий диапазон дат из раскрывающегося списка и нажав кнопку "Ввод!".


*Определитесь, кто Вы:
робот инопланетянин человек

Внимание! Время в таблицах - всемирное. Для получения местного времени необходимо прибавить поправку, которая равна 3 ч.

Смотрите также архив погоды в соседних городах и на ближайших метеорологических станциях:

Погода в Мине (Саудовская Аравия) (14 км)
Погода в Мекке (Саудовская Аравия) (24 км)
Погода в Аль-Таифе (Саудовская Аравия) (62 км)
Погода в Джидде (Саудовская Аравия) (92 км)
Погода в Аль-Бахе (Саудовская Аравия) (209 км)
Погода в Бише (Саудовская Аравия) (315 км)
Погода в Порт-Судане (Судан) (346 км)
Погода в Медине (Саудовская Аравия) (359 км)
Погода в Янбу (Саудовская Аравия) (367 км)
Погода в Абхе (Саудовская Аравия) (444 км)

Пояснения к столбцам:

Ветер - указаны скорость ветра в м/с - средняя за 10 мин, порывы в срок и между сроками (в фигурных скобках) и направление, откуда дует ветер: С - северный, СВ - северо-восточный, В - восточный, ЮВ - юго-восточный, Ю - южный, ЮЗ - юго-западный, З - западный, СЗ - северо-западный.
Видимость - горизонтальная дальность видимости в метрах или километрах. При видимости от 1 до 10 км при отсутствии осадков обычно наблюдается дымка, при ухудшении видимости до 1 км и менее - туман. В сухую погоду видимость может ухудшаться дымом, пылью или мглою.
Явления - указаны атмосферные явления, наблюдавшиеся в срок или в последний час перед сроком; фигурными скобками обозначены явления, наблюдавшиеся между сроками (за 1-3 часа до срока); квадратными скобками обозначены град или гололедные отложения с указанием их диаметра в мм.
Облачность - указаны через наклонную черту общая и нижняя облачность в баллах и высота нижней границы облаков в метрах; квадратными скобками обозначены формы облаков: Ci - перистые, Cs - перисто-слоистые, Cc - перисто-кучевые, Ac - высококучевые, As - высокослоистые, Sc - слоисто-кучевые, Ns - слоисто-дождевые, Cu - кучевые, Cb - кучево-дождевые. Подробнее классификацию облаков см. в Атласе облаков (PDF).
T - Температура воздуха - температура, измеренная на высоте 2 м над землей.
Td - Температура точки росы - температура, при понижении до которой содержащийся в воздухе водяной пар достигнет насыщения.
f - Относительная влажность воздуха - влажноcть воздуха, измеренная на высоте 2 м над землей.
Te - Эффективная температура - температура, которую ощущает одетый по сезону человек в тени. Характеристика душности погоды. При расчете учитывается влияние влажности воздуха и скорости ветра на теплоощущения человека.
Tes - Эффективная температура на солнце - температура, которую ощущает человек, с поправкой на солнечный нагрев. Характеристика знойности погоды. Зависит от высоты солнца над горизонтом, облачности и скорости ветра. Ночью, в пасмурную погоду, а также при ветре 12 м/с и более поправка равна нулю.
P - Атмосферное давление - приведенное к уровню моря атмосферное давление.
Po - Атмосферное давление - измеренное на уровне метеостанции атмосферное давление.
Tmin - Минимальная температура - минимум температуры воздуха на высоте 2 м над землей.
Tmax - Максимальная температура - максимум температуры воздуха на высоте 2 м над землей.
R - Количество осадков - Количество выпавших осадков за период времени, мм. При наведении курсора мыши на число - период времени, за который выпало указанное количество осадков.
R24 - Количество осадков - Количество выпавших осадков за 24 часа, мм.
S - Снежный покров - Высота снежного покрова, см. При наведении курсора мыши на число - состояние снежного покрова и степень покрытия местности в баллах.